Regional Weather Roundup
Issued by NWS

Home | Current Version | Previous Version | Graphics & Text | Print | Product List | Glossary On
Versions: 1 2 3 4 5 6 7 8 9 10 11 12 13 14 15 16 17 18 19 20 21 22 23 24 25 26 27 28 29 30 31 32 33 34 35 36 37 38 39 40 41 42 43 44 45 46 47 48 49 50
000
ASUS43 KDTX 050110
RWRMI
MICHIGAN HOURLY REGIONAL WEATHER ROUNDUP
NATIONAL WEATHER SERVICE DETROIT/PONTIAC MI
800 PM EST WED MAR 04 2015

NOTE: "FAIR" INDICATES FEW OR NO CLOUDS BELOW 12,000 FEET WITH NO
SIGNIFICANT WEATHER AND/OR OBSTRUCTION TO VISIBILITY.

MIZ047>049-052>055-059>063-066>070-074>076-081>083-050200-
SOUTHEAST LOWER MICHIGAN

CITY           SKY/WX    TMP DP  RH WIND       PRES   REMARKS
ADRIAN         CLOUDY    19   4  51 NW12G23   30.15R WCI   7
ALMA           PTCLDY    15  -2  46 W15       30.16R WCI   0
ANN ARBOR      CLOUDY    20   6  55 W17G23    30.12R WCI   5
BAD AXE        MOCLDY    17   4  56 NW14G21   30.09R WCI   3
CARO           CLOUDY    17   3  53 W13G18    30.10R WCI   4
DETROIT CITY   CLOUDY    25   8  48 W13G24    30.08R WCI  14
DETROIT        CLOUDY    22   6  50 W21G29    30.12R WCI   6
FLINT          CLOUDY    19   3  49 W15       30.11R WCI   5
GROSSE ILE     CLOUDY    25   3  39 W17G26    30.10R WCI  11
HILLSDALE      CLOUDY    18   4  56 NW14G22   30.14R WCI   4
HOWELL         CLOUDY    17   3  54 NW15G23   30.11R WCI   3

CITY           SKY/WX    TMP DP  RH WIND       PRES   REMARKS
JACKSON        CLOUDY    17   4  56 W18       30.15R WCI   1
LAMBERTVILLE   CLOUDY    25   7  46 NW13G21   30.13R WCI  13
LANSING        MOCLDY    16   2  54 W10       30.16R WCI   4
LAPEER         FAIR      19   2  47 NW12G21   30.09R WCI   7
MASON          CLOUDY    17   3  55 W14       30.14R WCI   3
MONROE         CLOUDY    21   7  53 NW17G25   30.11R WCI   7
MT. CLEMENS    MOCLDY    24   9  52 NW18G24   30.05R WCI  10
PONTIAC        CLOUDY    19   5  54 W22G31    30.08R WCI   2
PORT HOPE        N/A     20   6  55 W16G24    30.05R WCI   6
PORT HURON     CLOUDY    23   9  54 W13G23    30.07R WCI  11
TRI CITIES     PTCLDY    18  -2  41 NW15G23   30.14R WCI   4
TROY           CLOUDY    25   5  42 W16G24    30.10R WCI  12
SAGINAW HB     MOCLDY    18   1  49 W16       30.12R WCI   3
$$
MIZ043>046-050>051-056>058-064>065-071>073-077>080-050200-
SOUTHWEST LOWER MICHIGAN

CITY           SKY/WX    TMP DP  RH WIND       PRES   REMARKS
BATTLE CREEK   MOCLDY    18   3  52 NW13      30.17R WCI   5
BENTON HARBOR  MOCLDY    18   4  54 NW7       30.22R WCI   9
BIG RAPIDS     CLEAR     13   0  56 NW9       30.14R WCI   0
COLDWATER      CLOUDY    17   5  57 NW9       30.17R WCI   6
FREMONT        FAIR      13  -5  43 NW12      30.18R WCI   0
HOLLAND        CLOUDY    18   3  52 W8G18     30.21R WCI   8
GRAND RAPIDS   MOCLDY    15  -2  46 NW13      30.19R WCI   1
IONIA          MOCLDY    16   1  51 W15G21    30.17R WCI   2
KALAMAZOO      MOCLDY    18   3  52 NW12      30.18R WCI   5
LUDINGTON      CLOUDY    16  -4  41 NW9G20    30.20R WCI   4
MARSHALL       CLOUDY    16   2  54 W13G21    30.16R WCI   2
MOUNT PLEASANT CLOUDY    15   1  54 NW7       30.15R WCI   5
MUSKEGON       MOCLDY    17  -1  45 NW15G24   30.21R WCI   2
SOUTH HAVEN    MOCLDY    19   5  54 NW6       30.21R WCI  11
$$
MIZ016>042-050200-
NORTHERN LOWER MICHIGAN

CITY           SKY/WX    TMP DP  RH WIND       PRES   REMARKS
ALPENA         LGT SNOW   9   3  77 NW8       30.12R WCI  -3
BEAVER ISLAND  PTCLDY     3  -5  69 NW10      30.17R WCI -12
BELLAIRE       LGT SNOW   8   3  80 N5        30.18R WCI  -1
CADILLAC       PTCLDY     8   2  74 W9        30.09R WCI  -5
CHARLEVOIX     MOCLDY     4  -2  75 NW3       30.20R
FRANKFORT      MOCLDY    14  -2  49 NW12      30.17R WCI   0
GAYLORD        MOCLDY     4  -2  76 VRB7      30.07R WCI  -8
GRAYLING       PTCLDY     8   1  72 NW9       30.09R WCI  -5
HARBOR SPRINGS MOCLDY     6  -6  58 NW6       30.16R WCI  -5
HOUGHTON LAKE  MOCLDY     9   3  77 W9        30.09R WCI  -4
MANISTEE       CLOUDY    16  -4  41 NW13      30.17R WCI   2
OSCODA         PTCLDY    13  -1  55 NW14G23   30.11R WCI  -2
PELLSTON       CLOUDY     5  -6  60 NW18      30.16R WCI -15
ROGERS CITY    CLOUDY     8   3  79 NW9G21    30.13R HAZE    WCI  -5
TRAVERSE CITY  FLURRIES   9   3  77 N9        30.16R WCI  -4
$$
MIZ007>008-015-050200-
EASTERN UPPER MICHIGAN

CITY           SKY/WX    TMP DP  RH WIND       PRES   REMARKS
KINROSS        CLEAR      0  -4  85 NW9       30.12R WCI -16
MACKINAC ISLAN PTCLDY     4  -6  63 NW7       30.14R WCI  -8
NEWBERRY       MOCLDY     1  -3  81 NW6       30.14R FOG     WCI -10
S. S. MARIE    CLEAR      1  -7  68 W12       30.11R WCI -16
MUNISING         N/A      6  -7  54 NW8       30.18R WCI  -7
$$
MIZ004>006-011>014-085-050200-
CENTRAL UPPER MICHIGAN

CITY           SKY/WX    TMP DP  RH WIND       PRES   REMARKS
MANISTIQUE     CLEAR      2  -4  75 NW6       30.18R WCI  -9
ESCANABA       PTCLDY     7  -9  47 NW6       30.22R WCI  -3
MENOMINEE      CLEAR      9 -11  40 N8        30.20R WCI  -4
SAWYER-GWINN   PTCLDY     1  -9  60 NW9       30.14R WCI -14
$$
MIZ001>003-009>011-084-050200-
WESTERN UPPER MICHIGAN

CITY           SKY/WX    TMP DP  RH WIND       PRES   REMARKS
IRON MOUNTAIN  CLEAR      2 -12  52 NW12      30.15R WCI -15
HOUGHTON       PTCLDY     1  -5  75 NW13      30.13R WCI -17
COPPER HARBOR    N/A      4  -7  60 N17       30.17R WCI -16
IRONWOOD       CLOUDY     1  -8  66 W12       30.17R WCI -15
$$

ABBREVIATIONS USED IN REMARKS
   TC - TEMPERATURE IN CELSIUS
  WCI - WIND CHILL INDEX
   HX - HEAT INDEX
  VSB - VISIBILITY




USA.gov is the U.S. government's official web portal to all federal, state and local government web resources and services.